QPF
0.00 0.00 0.00 0.00 0.00 0.00 0.00 0.00 0.00 0.00 0.00 0.00 0.00 0.00 0.00 0.00 0.00 0.00 0.00 0.00 0.00 0.01 0.02 0.03 0.04 0.07 0.10 0.14 0.19 0.28 0.31 0.27 0.26 0.21 0.14 0.09 0.05 0.03 0.03 0.02 0.02 0.01 0.01
0.00 0.00 0.00 0.00 0.00 0.00 0.00 0.00 0.00 0.00 0.00 0.00 0.00 0.00 0.00 0.00 0.00 0.00 0.00 0.00 0.00 0.00 0.01 0.02 0.02 0.03 0.06 0.11 0.15 0.21 0.29 0.29 0.28 0.24 0.21 0.17 0.09 0.03 0.03 0.03 0.02 0.02 0.01
0.00 0.00 0.00 0.00 0.00 0.00 0.00 0.00 0.00 0.00 0.00 0.00 0.00 0.00 0.00 0.00 0.00 0.00 0.00 0.00 0.00 0.00 0.01 0.01 0.02 0.03 0.04 0.06 0.10 0.17 0.25 0.31 0.34 0.28 0.24 0.20 0.14 0.08 0.04 0.02 0.02 0.02 0.02
0.00 0.00 0.00 0.00 0.00 0.00 0.00 0.00 0.00 0.00 0.00 0.00 0.00 0.00 0.00 0.00 0.00 0.00 0.00 0.01 0.01 0.01 0.01 0.01 0.02 0.03 0.04 0.05 0.08 0.12 0.19 0.28 0.34 0.35 0.29 0.21 0.15 0.13 0.09 0.05 0.03 0.03 0.02
0.00 0.00 0.00 0.00 0.00 0.00 0.00 0.00 0.00 0.00 0.00 0.00 0.00 0.00 0.00 0.00 0.01 0.01 0.01 0.02 0.02 0.01 0.01 0.02 0.02 0.02 0.02 0.04 0.08 0.12 0.15 0.21 0.26 0.30 0.31 0.25 0.19 0.13 0.10 0.08 0.07 0.04 0.02
0.00 0.00 0.00 0.00 0.00 0.00 0.00 0.00 0.00 0.00 0.00 0.00 0.00 0.00 0.01 0.02 0.01 0.01 0.01 0.02 0.02 0.02 0.02 0.02 0.03 0.03 0.03 0.04 0.06 0.09 0.13 0.17 0.23 0.28 0.30 0.27 0.21 0.15 0.10 0.08 0.08 0.08 0.04
0.00 0.00 0.00 0.00 0.00 0.00 0.00 0.00 0.00 0.00 0.00 0.00 0.00 0.00 0.01 0.02 0.01 0.02 0.03 0.03 0.02 0.02 0.02 0.02 0.04 0.05 0.05 0.05 0.07 0.09 0.13 0.14 0.18 0.23 0.27 0.29 0.26 0.22 0.17 0.13 0.10 0.09 0.08
0.00 0.00 0.00 0.00 0.00 0.00 0.00 0.00 0.00 0.00 0.00 0.00 0.00 0.00 0.01 0.02 0.02 0.04 0.08 0.07 0.05 0.04 0.04 0.04 0.05 0.06 0.07 0.08 0.08 0.10 0.13 0.14 0.15 0.18 0.25 0.32 0.31 0.28 0.23 0.17 0.14 0.11 0.08
0.00 0.00 0.00 0.00 0.00 0.00 0.00 0.00 0.00 0.00 0.00 0.00 0.00 0.00 0.01 0.02 0.04 0.06 0.09 0.09 0.06 0.06 0.06 0.07 0.08 0.07 0.07 0.07 0.06 0.08 0.10 0.13 0.15 0.16 0.19 0.24 0.28 0.29 0.25 0.21 0.17 0.14 0.09
0.00 0.00 0.00 0.00 0.00 0.00 0.00 0.00 0.00 0.00 0.00 0.00 0.00 0.01 0.01 0.01 0.03 0.04 0.03 0.05 0.05 0.06 0.07 0.07 0.08 0.08 0.09 0.10 0.09 0.08 0.08 0.10 0.13 0.18 0.24 0.25 0.24 0.27 0.28 0.24 0.19 0.16 0.12
0.00 0.00 0.00 0.00 0.00 0.00 0.00 0.00 0.00 0.00 0.00 0.00 0.00 0.00 0.00 0.01 0.01 0.01 0.01 0.02 0.04 0.04 0.05 0.07 0.07 0.08 0.10 0.10 0.09 0.09 0.08 0.09 0.12 0.14 0.19 0.25 0.29 0.27 0.28 0.31 0.29 0.24 0.18
0.00 0.00 0.00 0.00 0.00 0.00 0.00 0.00 0.00 0.00 0.00 0.00 0.00 0.00 0.00 0.01 0.01 0.01 0.01 0.02 0.04 0.04 0.05 0.06 0.06 0.05 0.07 0.10 0.10 0.07 0.07 0.08 0.09 0.12 0.15 0.19 0.26 0.29 0.29 0.32 0.33 0.32 0.25
0.00 0.00 0.00 0.00 0.00 0.00 0.00 0.00 0.00 0.00 0.00 0.00 0.00 0.00 0.00 0.00 0.00 0.00 0.00 0.01 0.02 0.05 0.08 0.05 0.04 0.03 0.04 0.05 0.07 0.09 0.09 0.08 0.10 0.13 0.16 0.19 0.22 0.26 0.27 0.29 0.30 0.31 0.33
0.00 0.00 0.00 0.00 0.00 0.00 0.00 0.00 0.00 0.00 0.00 0.00 0.00 0.00 0.00 0.00 0.00 0.00 0.00 0.00 0.00 0.01 0.02 0.03 0.04 0.04 0.03 0.03 0.04 0.05 0.06 0.06 0.07 0.12 0.17 0.20 0.23 0.25 0.27 0.28 0.30 0.29 0.28
0.00 0.00 0.00 0.00 0.00 0.00 0.00 0.00 0.00 0.00 0.00 0.00 0.00 0.00 0.00 0.00 0.00 0.00 0.00 0.00 0.00 0.00 0.00 0.01 0.01 0.02 0.02 0.03 0.04 0.03 0.02 0.02 0.05 0.08 0.12 0.18 0.23 0.26 0.26 0.26 0.26 0.24 0.23
0.00 0.00 0.00 0.00 0.00 0.00 0.00 0.00 0.00 0.00 0.00 0.00 0.00 0.00 0.00 0.00 0.00 0.00 0.00 0.00 0.00 0.00 0.00 0.00 0.01 0.02 0.01 0.01 0.03 0.03 0.02 0.02 0.03 0.07 0.11 0.13 0.14 0.19 0.21 0.22 0.24 0.22 0.20
0.00 0.00 0.00 0.00 0.00 0.00 0.00 0.00 0.00 0.00 0.00 0.00 0.00 0.00 0.00 0.00 0.00 0.00 0.00 0.00 0.00 0.00 0.00 0.00 0.02 0.02 0.01 0.02 0.03 0.04 0.02 0.02 0.03 0.05 0.08 0.11 0.10 0.12 0.17 0.18 0.19 0.20 0.19
0.00 0.00 0.00 0.00 0.00 0.00 0.00 0.00 0.00 0.00 0.00 0.00 0.00 0.00 0.00 0.00 0.00 0.00 0.00 0.00 0.00 0.00 0.00 0.00 0.01 0.02 0.02 0.03 0.03 0.04 0.02 0.03 0.05 0.06 0.06 0.07 0.08 0.09 0.12 0.15 0.15 0.15 0.14
0.00 0.00 0.00 0.00 0.00 0.00 0.00 0.00 0.00 0.00 0.00 0.00 0.00 0.00 0.00 0.00 0.00 0.00 0.00 0.00 0.00 0.00 0.00 0.00 0.01 0.01 0.01 0.03 0.03 0.03 0.02 0.02 0.03 0.04 0.05 0.04 0.05 0.06 0.07 0.09 0.10 0.11 0.10
0.00 0.00 0.00 0.00 0.00 0.00 0.00 0.00 0.00 0.00 0.00 0.00 0.00 0.00 0.00 0.00 0.00 0.00 0.00 0.00 0.00 0.00 0.00 0.01 0.02 0.02 0.02 0.02 0.02 0.02 0.01 0.01 0.01 0.02 0.03 0.05 0.04 0.06 0.07 0.07 0.07 0.08 0.07
0.00 0.00 0.00 0.00 0.00 0.00 0.00 0.00 0.00 0.00 0.00 0.00 0.00 0.00 0.00 0.00 0.00 0.00 0.00 0.00 0.00 0.00 0.00 0.01 0.02 0.01 0.01 0.01 0.01 0.01 0.01 0.01 0.01 0.02 0.03 0.04 0.04 0.05 0.08 0.06 0.06 0.07 0.07
0.00 0.00 0.00 0.00 0.00 0.00 0.00 0.00 0.00 0.00 0.00 0.00 0.00 0.00 0.00 0.00 0.00 0.00 0.00 0.00 0.00 0.00 0.00 0.02 0.05 0.02 0.01 0.00 0.01 0.01 0.02 0.02 0.01 0.02 0.05 0.06 0.05 0.05 0.07 0.06 0.07 0.08 0.08
0.00 0.00 0.00 0.00 0.00 0.00 0.00 0.00 0.00 0.00 0.00 0.00 0.00 0.00 0.00 0.00 0.00 0.00 0.00 0.00 0.00 0.00 0.00 0.01 0.03 0.02 0.01 0.01 0.01 0.01 0.01 0.02 0.02 0.02 0.06 0.06 0.05 0.04 0.04 0.05 0.08 0.08 0.06
0.00 0.00 0.00 0.00 0.00 0.00 0.00 0.00 0.00 0.00 0.00 0.00 0.00 0.00 0.00 0.00 0.00 0.00 0.00 0.00 0.00 0.00 0.00 0.00 0.00 0.01 0.01 0.01 0.01 0.00 0.00 0.01 0.02 0.02 0.06 0.08 0.06 0.05 0.05 0.05 0.07 0.07 0.05
0.00 0.00 0.00 0.00 0.00 0.00 0.00 0.00 0.00 0.00 0.00 0.00 0.00 0.00 0.00 0.00 0.00 0.00 0.00 0.00 0.00 0.00 0.00 0.00 0.00 0.00 0.00 0.00 0.00 0.00 0.00 0.01 0.02 0.03 0.05 0.06 0.06 0.05 0.04 0.04 0.05 0.05 0.03
0.00 0.00 0.00 0.00 0.00 0.00 0.00 0.00 0.00 0.00 0.00 0.00 0.00 0.00 0.00 0.00 0.00 0.00 0.00 0.00 0.00 0.00 0.00 0.00 0.00 0.00 0.00 0.00 0.00 0.00 0.00 0.01 0.02 0.03 0.04 0.06 0.06 0.04 0.02 0.02 0.02 0.02 0.02
MSLP
1020.43 1020.20 1019.98 1019.75 1019.49 1019.20 1018.87 1018.52 1018.16 1017.79 1017.42 1017.07 1016.73 1016.40 1016.08 1015.76 1015.44 1015.12 1014.79 1014.48 1014.18 1013.91 1013.68 1013.49 1013.37 1013.30 1013.29 1013.34 1013.45 1013.61 1013.80 1014.01 1014.23 1014.43 1014.62 1014.77 1014.88 1014.96 1015.01 1015.04 1015.09 1015.17 1015.29
1020.43 1020.21 1019.99 1019.75 1019.47 1019.16 1018.82 1018.47 1018.12 1017.79 1017.48 1017.19 1016.91 1016.63 1016.32 1015.99 1015.63 1015.24 1014.85 1014.46 1014.10 1013.78 1013.51 1013.30 1013.15 1013.05 1013.00 1013.01 1013.06 1013.16 1013.31 1013.50 1013.72 1013.97 1014.23 1014.47 1014.67 1014.84 1014.97 1015.05 1015.11 1015.17 1015.26
1020.33 1020.14 1019.93 1019.69 1019.40 1019.07 1018.72 1018.38 1018.05 1017.77 1017.52 1017.30 1017.09 1016.85 1016.57 1016.23 1015.83 1015.39 1014.91 1014.45 1014.01 1013.63 1013.30 1013.05 1012.85 1012.71 1012.61 1012.56 1012.55 1012.59 1012.69 1012.86 1013.10 1013.40 1013.73 1014.08 1014.40 1014.69 1014.91 1015.07 1015.18 1015.24 1015.31
1020.14 1019.99 1019.81 1019.58 1019.29 1018.95 1018.59 1018.25 1017.96 1017.72 1017.53 1017.38 1017.23 1017.05 1016.80 1016.46 1016.03 1015.53 1014.98 1014.44 1013.92 1013.47 1013.08 1012.77 1012.53 1012.33 1012.17 1012.05 1011.97 1011.95 1012.01 1012.15 1012.39 1012.73 1013.14 1013.59 1014.03 1014.44 1014.79 1015.04 1015.21 1015.31 1015.36
1019.88 1019.78 1019.65 1019.44 1019.16 1018.82 1018.46 1018.12 1017.84 1017.64 1017.51 1017.42 1017.33 1017.19 1016.97 1016.64 1016.19 1015.65 1015.05 1014.44 1013.86 1013.34 1012.90 1012.54 1012.24 1011.98 1011.76 1011.57 1011.42 1011.33 1011.32 1011.43 1011.65 1012.01 1012.46 1012.99 1013.54 1014.07 1014.52 1014.87 1015.12 1015.27 1015.35
1019.59 1019.55 1019.47 1019.29 1019.02 1018.68 1018.32 1017.98 1017.72 1017.54 1017.44 1017.40 1017.35 1017.26 1017.07 1016.75 1016.30 1015.74 1015.12 1014.47 1013.85 1013.29 1012.81 1012.40 1012.05 1011.75 1011.46 1011.20 1010.97 1010.80 1010.71 1010.75 1010.93 1011.26 1011.73 1012.29 1012.91 1013.51 1014.06 1014.51 1014.84 1015.06 1015.18
1019.30 1019.33 1019.29 1019.14 1018.89 1018.56 1018.19 1017.85 1017.59 1017.42 1017.34 1017.33 1017.32 1017.26 1017.10 1016.80 1016.37 1015.82 1015.19 1014.54 1013.91 1013.34 1012.84 1012.41 1012.03 1011.67 1011.33 1010.99 1010.68 1010.41 1010.23 1010.18 1010.28 1010.54 1010.97 1011.52 1012.14 1012.79 1013.39 1013.91 1014.32 1014.62 1014.81
1019.03 1019.11 1019.11 1018.99 1018.76 1018.43 1018.06 1017.72 1017.45 1017.28 1017.21 1017.21 1017.22 1017.19 1017.06 1016.79 1016.40 1015.88 1015.29 1014.66 1014.06 1013.50 1013.00 1012.56 1012.16 1011.77 1011.37 1010.97 1010.57 1010.20 1009.91 1009.74 1009.73 1009.89 1010.23 1010.71 1011.29 1011.92 1012.55 1013.11 1013.59 1013.96 1014.23
1018.79 1018.90 1018.93 1018.83 1018.61 1018.28 1017.92 1017.57 1017.30 1017.13 1017.06 1017.06 1017.08 1017.07 1016.97 1016.75 1016.39 1015.93 1015.39 1014.82 1014.27 1013.75 1013.27 1012.84 1012.43 1012.01 1011.57 1011.10 1010.62 1010.15 1009.74 1009.45 1009.31 1009.34 1009.55 1009.92 1010.42 1011.00 1011.59 1012.17 1012.69 1013.13 1013.49
1018.56 1018.68 1018.72 1018.63 1018.41 1018.09 1017.73 1017.39 1017.12 1016.95 1016.88 1016.88 1016.91 1016.92 1016.85 1016.67 1016.37 1015.97 1015.50 1015.00 1014.51 1014.04 1013.60 1013.19 1012.77 1012.34 1011.86 1011.33 1010.78 1010.22 1009.72 1009.30 1009.03 1008.93 1009.00 1009.25 1009.63 1010.11 1010.65 1011.20 1011.73 1012.21 1012.65
1018.33 1018.44 1018.46 1018.36 1018.14 1017.84 1017.49 1017.16 1016.91 1016.75 1016.69 1016.70 1016.74 1016.76 1016.71 1016.57 1016.33 1015.99 1015.60 1015.17 1014.74 1014.32 1013.92 1013.52 1013.11 1012.66 1012.15 1011.59 1010.98 1010.37 1009.78 1009.28 1008.91 1008.69 1008.64 1008.75 1009.00 1009.37 1009.82 1010.31 1010.82 1011.33 1011.82
1018.08 1018.15 1018.14 1018.03 1017.81 1017.51 1017.19 1016.89 1016.67 1016.54 1016.49 1016.52 1016.57 1016.60 1016.58 1016.47 1016.28 1016.00 1015.66 1015.29 1014.92 1014.54 1014.17 1013.79 1013.38 1012.91 1012.39 1011.80 1011.17 1010.53 1009.91 1009.36 1008.92 1008.61 1008.46 1008.46 1008.59 1008.85 1009.20 1009.61 1010.08 1010.57 1011.08
1017.80 1017.82 1017.77 1017.63 1017.41 1017.13 1016.85 1016.60 1016.42 1016.33 1016.32 1016.36 1016.43 1016.47 1016.46 1016.38 1016.21 1015.97 1015.69 1015.36 1015.03 1014.68 1014.33 1013.95 1013.54 1013.07 1012.53 1011.94 1011.31 1010.67 1010.05 1009.50 1009.03 1008.69 1008.48 1008.40 1008.44 1008.59 1008.83 1009.15 1009.54 1009.99 1010.49
1017.49 1017.45 1017.35 1017.20 1016.98 1016.74 1016.50 1016.31 1016.19 1016.15 1016.18 1016.24 1016.32 1016.36 1016.36 1016.29 1016.14 1015.93 1015.67 1015.38 1015.07 1014.75 1014.40 1014.02 1013.60 1013.12 1012.59 1012.01 1011.40 1010.78 1010.20 1009.67 1009.23 1008.89 1008.66 1008.53 1008.50 1008.56 1008.70 1008.92 1009.22 1009.60 1010.05
1017.14 1017.05 1016.93 1016.76 1016.55 1016.35 1016.18 1016.06 1016.00 1016.01 1016.08 1016.16 1016.24 1016.29 1016.28 1016.21 1016.07 1015.88 1015.64 1015.37 1015.07 1014.76 1014.41 1014.03 1013.59 1013.11 1012.58 1012.02 1011.44 1010.87 1010.34 1009.87 1009.48 1009.17 1008.95 1008.80 1008.73 1008.72 1008.77 1008.90 1009.10 1009.38 1009.76
1016.76 1016.65 1016.50 1016.34 1016.17 1016.02 1015.91 1015.86 1015.87 1015.93 1016.02 1016.12 1016.20 1016.23 1016.22 1016.13 1016.00 1015.81 1015.59 1015.34 1015.06 1014.75 1014.41 1014.02 1013.59 1013.10 1012.58 1012.03 1011.48 1010.96 1010.49 1010.08 1009.75 1009.48 1009.28 1009.14 1009.04 1008.98 1008.96 1009.00 1009.11 1009.30 1009.60
1016.36 1016.24 1016.10 1015.96 1015.83 1015.74 1015.70 1015.71 1015.78 1015.88 1015.99 1016.09 1016.16 1016.18 1016.14 1016.05 1015.91 1015.74 1015.54 1015.31 1015.05 1014.77 1014.44 1014.06 1013.62 1013.13 1012.62 1012.08 1011.56 1011.07 1010.64 1010.29 1010.00 1009.78 1009.60 1009.47 1009.35 1009.26 1009.19 1009.16 1009.19 1009.31 1009.52
1015.94 1015.83 1015.72 1015.61 1015.54 1015.51 1015.53 1015.60 1015.71 1015.84 1015.96 1016.05 1016.09 1016.09 1016.04 1015.94 1015.81 1015.65 1015.48 1015.29 1015.07 1014.82 1014.51 1014.15 1013.73 1013.25 1012.73 1012.20 1011.69 1011.23 1010.82 1010.49 1010.23 1010.03 1009.87 1009.74 1009.62 1009.50 1009.40 1009.32 1009.30 1009.36 1009.52
1015.48 1015.41 1015.33 1015.28 1015.26 1015.29 1015.37 1015.49 1015.62 1015.76 1015.87 1015.94 1015.97 1015.94 1015.88 1015.78 1015.66 1015.54 1015.41 1015.26 1015.10 1014.89 1014.63 1014.30 1013.90 1013.43 1012.92 1012.40 1011.89 1011.42 1011.02 1010.69 1010.43 1010.23 1010.07 1009.93 1009.80 1009.67 1009.55 1009.46 1009.41 1009.45 1009.59
1015.01 1014.96 1014.93 1014.92 1014.96 1015.04 1015.17 1015.31 1015.46 1015.60 1015.69 1015.75 1015.75 1015.71 1015.63 1015.55 1015.46 1015.37 1015.30 1015.22 1015.11 1014.97 1014.76 1014.47 1014.10 1013.65 1013.16 1012.64 1012.12 1011.65 1011.23 1010.89 1010.61 1010.40 1010.22 1010.07 1009.93 1009.80 1009.67 1009.58 1009.54 1009.58 1009.72
1014.51 1014.49 1014.49 1014.53 1014.61 1014.72 1014.87 1015.03 1015.19 1015.32 1015.40 1015.43 1015.42 1015.37 1015.31 1015.24 1015.19 1015.15 1015.13 1015.12 1015.08 1014.99 1014.84 1014.60 1014.27 1013.86 1013.38 1012.87 1012.36 1011.88 1011.45 1011.09 1010.79 1010.55 1010.36 1010.19 1010.04 1009.91 1009.79 1009.71 1009.69 1009.75 1009.91
1014.01 1014.00 1014.02 1014.07 1014.17 1014.31 1014.47 1014.64 1014.79 1014.90 1014.97 1015.00 1014.99 1014.95 1014.90 1014.86 1014.85 1014.87 1014.91 1014.95 1014.97 1014.95 1014.85 1014.66 1014.37 1013.99 1013.55 1013.07 1012.57 1012.10 1011.67 1011.29 1010.98 1010.72 1010.51 1010.33 1010.18 1010.05 1009.95 1009.89 1009.90 1010.00 1010.19
1013.55 1013.52 1013.52 1013.58 1013.67 1013.80 1013.96 1014.11 1014.25 1014.36 1014.43 1014.46 1014.46 1014.44 1014.43 1014.43 1014.47 1014.53 1014.62 1014.71 1014.77 1014.79 1014.74 1014.59 1014.35 1014.02 1013.62 1013.18 1012.72 1012.27 1011.86 1011.50 1011.19 1010.93 1010.71 1010.53 1010.38 1010.25 1010.17 1010.15 1010.19 1010.32 1010.54
1013.16 1013.08 1013.05 1013.06 1013.13 1013.23 1013.36 1013.49 1013.61 1013.71 1013.79 1013.83 1013.86 1013.88 1013.91 1013.96 1014.04 1014.15 1014.27 1014.39 1014.48 1014.53 1014.51 1014.40 1014.20 1013.92 1013.57 1013.19 1012.79 1012.39 1012.03 1011.70 1011.42 1011.17 1010.97 1010.80 1010.65 1010.55 1010.48 1010.47 1010.54 1010.69 1010.94
1012.89 1012.74 1012.64 1012.59 1012.59 1012.64 1012.71 1012.81 1012.90 1012.99 1013.08 1013.14 1013.21 1013.27 1013.35 1013.45 1013.57 1013.71 1013.86 1014.00 1014.11 1014.17 1014.16 1014.08 1013.92 1013.69 1013.41 1013.10 1012.77 1012.45 1012.15 1011.88 1011.65 1011.45 1011.27 1011.12 1011.00 1010.91 1010.86 1010.86 1010.94 1011.11 1011.37
1012.78 1012.54 1012.34 1012.20 1012.11 1012.07 1012.07 1012.11 1012.17 1012.24 1012.32 1012.41 1012.51 1012.62 1012.75 1012.90 1013.06 1013.23 1013.39 1013.54 1013.65 1013.72 1013.72 1013.66 1013.53 1013.36 1013.14 1012.91 1012.67 1012.43 1012.22 1012.03 1011.86 1011.72 1011.58 1011.46 1011.36 1011.29 1011.25 1011.27 1011.36 1011.53 1011.79
Thickness
5666 5666 5665 5663 5661 5660 5658 5658 5658 5659 5659 5660 5662 5665 5668 5672 5676 5680 5685 5689 5694 5698 5702 5706 5710 5713 5716 5720 5722 5724 5724 5725 5727 5725 5726 5731 5735 5738 5742 5744 5745 5746 5746
5662 5662 5661 5660 5657 5655 5654 5654 5653 5653 5653 5653 5654 5657 5660 5663 5667 5670 5675 5680 5684 5689 5694 5698 5702 5705 5709 5712 5716 5717 5718 5720 5722 5720 5716 5716 5721 5730 5736 5738 5740 5742 5742
5660 5659 5658 5657 5655 5653 5651 5650 5649 5649 5648 5649 5650 5652 5654 5656 5659 5662 5666 5671 5675 5680 5685 5690 5694 5698 5702 5705 5709 5712 5713 5714 5716 5718 5716 5711 5712 5718 5725 5730 5735 5737 5738
5661 5658 5657 5655 5653 5652 5650 5648 5647 5646 5645 5645 5644 5644 5645 5646 5650 5652 5657 5662 5667 5672 5677 5682 5686 5690 5694 5698 5702 5706 5709 5710 5710 5712 5715 5716 5717 5713 5714 5721 5727 5731 5733
5661 5659 5657 5655 5654 5652 5649 5647 5645 5644 5643 5642 5640 5640 5640 5641 5644 5647 5651 5655 5660 5665 5670 5674 5679 5683 5687 5691 5695 5699 5702 5705 5708 5708 5709 5709 5710 5712 5711 5711 5716 5721 5727
5663 5660 5659 5657 5654 5652 5650 5647 5643 5641 5640 5639 5637 5636 5636 5637 5639 5641 5644 5648 5653 5657 5662 5667 5671 5675 5680 5684 5688 5692 5695 5699 5702 5705 5707 5708 5707 5708 5709 5708 5710 5714 5719
5663 5660 5658 5656 5653 5651 5649 5646 5643 5640 5639 5637 5636 5634 5633 5633 5634 5635 5638 5641 5645 5649 5654 5659 5663 5668 5672 5677 5681 5685 5689 5693 5696 5699 5702 5706 5708 5709 5708 5706 5706 5707 5711
5665 5662 5660 5658 5655 5653 5650 5646 5643 5640 5638 5636 5635 5634 5632 5631 5631 5631 5633 5634 5637 5642 5647 5652 5656 5661 5665 5669 5673 5677 5682 5687 5690 5694 5697 5700 5703 5705 5706 5705 5703 5700 5703
5668 5666 5664 5661 5658 5655 5652 5648 5644 5641 5639 5636 5635 5633 5631 5630 5629 5629 5629 5630 5633 5637 5641 5645 5649 5653 5657 5661 5665 5670 5674 5679 5683 5688 5691 5694 5697 5699 5702 5703 5703 5700 5698
5671 5669 5667 5664 5661 5658 5654 5650 5646 5643 5640 5637 5635 5633 5630 5629 5628 5627 5627 5628 5629 5632 5636 5639 5642 5645 5649 5653 5656 5661 5666 5671 5675 5680 5684 5688 5691 5693 5695 5698 5700 5701 5700
5674 5671 5669 5667 5664 5661 5657 5653 5649 5645 5642 5638 5635 5632 5630 5628 5627 5626 5625 5625 5626 5628 5631 5633 5636 5638 5641 5645 5648 5652 5657 5662 5667 5672 5676 5681 5685 5687 5690 5692 5694 5695 5697
5678 5675 5673 5670 5667 5663 5659 5655 5651 5647 5643 5640 5636 5633 5630 5628 5626 5625 5624 5624 5624 5624 5626 5628 5630 5632 5634 5637 5640 5644 5648 5653 5658 5664 5669 5673 5678 5681 5684 5686 5689 5691 5692
5682 5679 5675 5672 5669 5666 5662 5659 5654 5650 5646 5642 5638 5634 5631 5628 5626 5624 5623 5622 5622 5622 5622 5623 5624 5626 5628 5631 5634 5637 5641 5646 5650 5656 5661 5665 5669 5673 5676 5680 5683 5685 5687
5684 5681 5678 5675 5673 5670 5666 5662 5658 5654 5649 5644 5640 5635 5632 5628 5626 5624 5623 5621 5620 5619 5619 5619 5620 5621 5623 5626 5628 5631 5634 5639 5644 5649 5654 5658 5662 5666 5670 5674 5677 5679 5680
5689 5686 5682 5679 5676 5673 5670 5666 5662 5657 5652 5647 5642 5637 5634 5630 5627 5625 5622 5620 5618 5617 5615 5615 5616 5617 5619 5621 5623 5625 5628 5632 5636 5641 5646 5651 5656 5661 5665 5668 5670 5673 5674
5693 5691 5688 5684 5681 5677 5673 5669 5665 5660 5655 5649 5644 5640 5636 5632 5628 5625 5622 5620 5617 5615 5613 5612 5611 5612 5614 5616 5619 5620 5621 5625 5628 5633 5638 5643 5648 5653 5658 5662 5665 5668 5669
5698 5695 5692 5688 5685 5681 5677 5672 5668 5663 5658 5652 5647 5642 5637 5633 5629 5626 5622 5619 5616 5614 5611 5609 5608 5607 5608 5611 5613 5615 5615 5618 5621 5625 5629 5634 5639 5644 5649 5654 5658 5661 5664
5703 5700 5696 5692 5689 5686 5681 5676 5671 5665 5660 5655 5650 5645 5639 5635 5631 5626 5622 5619 5616 5612 5609 5606 5604 5603 5604 5606 5607 5609 5609 5612 5615 5618 5622 5626 5631 5636 5641 5645 5648 5652 5656
5710 5706 5702 5697 5693 5688 5684 5678 5673 5667 5662 5657 5653 5648 5642 5637 5632 5628 5623 5619 5615 5612 5609 5605 5602 5600 5599 5600 5602 5604 5604 5606 5609 5613 5617 5620 5625 5631 5635 5638 5641 5644 5648
5715 5710 5705 5700 5695 5691 5686 5679 5674 5669 5665 5661 5656 5651 5645 5640 5635 5630 5625 5621 5616 5612 5609 5606 5602 5598 5596 5597 5598 5600 5600 5601 5604 5608 5612 5616 5620 5625 5629 5633 5636 5638 5641
5718 5713 5707 5701 5698 5694 5687 5681 5677 5672 5670 5665 5660 5654 5649 5643 5638 5633 5628 5623 5618 5614 5609 5606 5602 5598 5596 5595 5596 5597 5597 5598 5600 5603 5607 5611 5616 5621 5625 5629 5632 5635 5638
5718 5713 5707 5703 5700 5695 5689 5684 5680 5678 5673 5668 5663 5658 5652 5648 5644 5637 5631 5626 5620 5616 5611 5607 5603 5600 5598 5596 5596 5597 5597 5598 5598 5600 5604 5608 5613 5617 5621 5625 5628 5631 5633
5717 5713 5708 5704 5701 5696 5691 5687 5686 5682 5676 5670 5665 5661 5656 5651 5646 5641 5635 5630 5624 5618 5613 5608 5605 5602 5600 5598 5598 5598 5598 5598 5598 5599 5603 5606 5610 5614 5618 5621 5624 5626 5628
5716 5712 5707 5703 5701 5698 5694 5691 5689 5684 5678 5672 5668 5664 5659 5654 5650 5645 5640 5634 5628 5623 5618 5613 5609 5605 5602 5600 5599 5598 5598 5599 5599 5600 5603 5605 5607 5611 5614 5617 5619 5622 5624
5714 5710 5706 5704 5703 5701 5697 5694 5690 5685 5679 5675 5671 5666 5662 5657 5653 5649 5644 5640 5635 5629 5624 5619 5614 5609 5606 5604 5603 5601 5600 5600 5601 5602 5603 5605 5607 5609 5611 5613 5615 5618 5620
5710 5707 5705 5703 5703 5701 5698 5696 5692 5687 5681 5676 5673 5669 5664 5660 5656 5652 5648 5645 5641 5637 5633 5627 5622 5617 5613 5611 5608 5607 5606 5605 5605 5604 5604 5605 5607 5608 5610 5612 5613 5615 5616